[[{"header":{"parameterUnit":"m.s-1","parameterCategory":1,"la1":30.2991,"la2":30.254,"lo1":-89.0895,"lo2":-89.0444,"dy":0.0017,"dx":0.0017,"nx":28,"ny":28,"refTime":"2025-12-12T03:00:00:Z","depth":0,"parameterNumber":2,"parameterNumberName":"U-component_of_WINDS"},"data":[0,0,0,0,0,0,0,0,0,0,0,0,0,0,0,0,0,0,0,0,0,0,0,0,0,0,0,0,0,0,0,0,0,0,0,0,0,0,0,0,0,0,0,0,0,0,0,0,0,0,0,0,0,0,0,0,0,0,-2.1914,-2.1915,0,-2.1937,-2.1938,-2.1938,-2.1906,-2.1905,-2.1904,-2.1903,-2.1926,-2.1927,-2.1929,0,0,0,0,0,0,0,0,0,0,0,0,0,-2.1843,-2.1844,-2.1914,-2.1915,-2.1915,-2.1937,-2.1938,-2.1938,-2.1907,-2.1905,-2.1904,-2.1903,-2.1925,-2.1927,-2.1929,0,0,0,0,0,0,0,0,0,0,0,0,0,-2.1871,-2.1845,-2.1914,-2.1902,-2.1901,-2.1937,-2.1938,-2.1938,-2.1907,-2.1905,-2.1903,-2.1902,-2.1925,-2.1927,-2.1929,-2.1979,0,0,-2.1937,-2.1938,0,0,0,0,0,0,0,0,-2.1869,-2.1873,-2.1904,-2.1903,-2.1902,-2.1917,-2.1921,-2.1952,-2.1907,-2.1905,-2.1903,-2.1901,-2.1924,-2.1927,-2.1935,-2.198,-2.1981,-2.1937,-2.1939,-2.194,-2.1941,0,0,0,0,0,0,0,-2.1867,-2.1872,-2.1923,-2.1904,-2.1903,-2.1895,-2.1897,-2.1926,-2.1924,-2.1905,-2.1903,-2.1906,-2.1924,-2.1932,-2.1935,-2.1981,-2.1937,-2.1939,-2.1941,-2.1942,-2.2067,-2.2069,0,0,0,0,0,0,-2.1867,-2.1871,-2.1923,-2.1924,-2.1881,-2.1898,-2.19,-2.1914,-2.1923,-2.1923,-2.1907,-2.1904,-2.1929,-2.1932,-2.1936,-2.1993,-2.194,-2.1942,-2.1944,-2.2065,-2.2068,-2.2069,0,0,0,0,0,0,-2.1865,-2.1872,-2.1922,-2.1897,-2.1903,-2.1901,-2.1917,-2.1915,-2.1924,-2.1925,-2.1924,-2.1917,-2.1928,-2.1932,-2.1968,-2.1993,-2.1943,-2.1945,-2.2063,-2.2066,-2.2068,-2.2109,0,0,0,0,0,0,-2.1864,-2.1872,-2.189,-2.1898,-2.1904,-2.1954,-2.1918,-2.1917,-2.1929,-2.1925,-2.1934,-2.1934,-2.1927,-2.1965,-2.1971,-2.1996,-2.1947,-2.2061,-2.2064,-2.2068,-2.2105,-2.2113,-2.2119,0,0,0,0,0,-2.1861,-2.19,-2.1891,-2.1898,-2.1927,-2.1956,-2.1959,-2.1951,-2.1931,-2.1949,-2.195,-2.1933,-2.199,-2.1969,-2.1975,-2.2002,-2.2059,-2.2063,-2.2067,-2.2102,-2.2111,-2.2119,0,0,0,0,0,0,-2.1895,-2.1901,-2.1891,-2.1934,-2.1945,-2.195,-2.1973,-2.1961,-2.1977,-2.1973,-2.1961,-2.1964,-2.2002,-2.2006,-2.1981,-2.205,-2.2021,-2.2027,-2.2045,-2.2054,-2.2061,-2.2059,-2.1949,0,0,0,0,0,-2.1908,-2.1931,-2.1934,-2.1972,-2.1978,-2.1975,-2.1987,-2.198,-2.199,-2.1994,-2.1997,-2.2008,-2.2028,-2.2042,-2.206,-2.2106,-2.2107,-2.2128,-2.2135,-2.214,-2.2145,-2.2169,-2.2178,-2.2083,-2.2083,-2.2083,0,0,-2.1934,-2.194,-2.1955,-2.1979,-2.1986,-2.201,-2.1979,-2.2005,-2.2022,-2.1998,-2.2032,-2.2035,-2.2046,-2.2087,-2.2105,-2.2091,-2.2172,-2.2146,-2.215,-2.2151,-2.2174,-2.2183,-2.2191,-2.2086,-2.2085,-2.2085,0,0,-2.1994,-2.2001,-2.2033,-2.2041,-2.2053,-2.2051,-2.2058,-2.2066,-2.2067,-2.2101,-2.2084,-2.2104,-2.2139,-2.2148,-2.2157,-2.2221,-2.2206,-2.2227,-2.2263,-2.2286,-2.2294,-2.23,-2.2322,-2.233,-2.2232,-2.2232,-2.2232,0,-2.2024,-2.2059,-2.205,-2.2078,-2.2089,-2.2069,-2.2101,-2.2109,-2.2127,-2.2135,-2.2119,-2.2163,-2.2169,-2.2211,-2.2227,-2.2235,-2.2243,-2.2225,-2.2293,-2.23,-2.2306,-2.2326,-2.2335,-2.2235,-2.2234,-2.2234,-2.2234,0,-2.2096,-2.212,-2.2145,-2.2162,-2.2176,-2.2206,-2.2201,-2.2217,-2.2209,-2.2208,-2.2243,-2.225,-2.227,-2.228,-2.2272,-2.2321,-2.2312,-2.2295,-2.2266,-2.2317,-2.2337,-2.2345,-2.2238,-2.2237,-2.2237,-2.2236,0,0,-2.2176,-2.2189,-2.2198,-2.2206,-2.2218,-2.2236,-2.2265,-2.2285,-2.2298,-2.2311,-2.2334,-2.2365,-2.235,-2.236,-2.2353,-2.2374,-2.2423,-2.2355,-2.2355,-2.2366,-2.2477,-2.2489,-2.2498,-2.2414,-2.2416,-2.2417,-2.2476,0,-2.2234,-2.2284,-2.2278,-2.2325,-2.2348,-2.233,-2.2355,-2.2365,-2.2366,-2.2385,-2.2386,-2.2407,-2.2386,-2.2392,-2.2412,-2.2413,-2.2445,-2.2409,-2.2435,-2.2436,-2.2431,-2.2508,-2.252,-2.2575,-2.2483,-2.2485,-2.2486,0,-2.2309,-2.2325,-2.2375,-2.2383,-2.2393,-2.2415,-2.2433,-2.2451,-2.2462,-2.2461,-2.2474,-2.2463,-2.2492,-2.2464,-2.2503,-2.2479,-2.2489,-2.2492,-2.2494,-2.2494,-2.2463,-2.251,-2.2593,-2.2601,-2.2498,-2.2497,-2.2496,0,-2.2361,-2.2395,-2.2429,-2.2436,-2.2448,-2.2464,-2.247,-2.2479,-2.2491,-2.2507,-2.2515,-2.2533,-2.2543,-2.2558,-2.2553,-2.2533,-2.2593,-2.2565,-2.2592,-2.2592,-2.2604,-2.2603,-2.2689,-2.2614,-2.2614,-2.2613,-2.2613,0,-2.2426,-2.2457,-2.2453,-2.2473,-2.2508,-2.25,-2.2534,-2.2538,-2.2547,-2.2568,-2.2554,-2.2574,-2.2567,-2.2587,-2.2583,-2.2616,-2.2621,-2.262,-2.2618,-2.262,-2.262,-2.2626,-2.2621,-2.2616,-2.2615,-2.2615,-2.2614,0,-2.2489,-2.2487,-2.2523,-2.2532,-2.2534,-2.2559,-2.2566,-2.2585,-2.2586,-2.2613,-2.2618,-2.2619,-2.2641,-2.2638,-2.2663,-2.2661,-2.2701,-2.2695,-2.2697,-2.2695,-2.2722,-2.2719,-2.2813,-2.2825,-2.2744,-2.2745,-2.2745,0,-2.253,-2.2553,-2.2564,-2.2577,-2.2584,-2.2606,-2.2618,-2.2612,-2.2626,-2.2641,-2.2658,-2.268,-2.2696,-2.2733,-2.2735,-2.2754,-2.2748,-2.278,-2.2751,-2.2752,-2.2747,-2.2745,-2.2747,-2.2785,-2.2786,-2.2787,-2.2787,0,-2.2602,-2.26,-2.2619,-2.2638,-2.2653,-2.2667,-2.268,-2.2692,-2.2687,-2.2703,-2.2726,-2.2739,-2.2765,-2.2786,-2.2804,-2.281,-2.2798,-2.2797,-2.2804,-2.2805,-2.2805,-2.2804,-2.2711,-2.2794,-2.2794,-2.2793,-2.2793,-2.2792,-2.2654,-2.2674,-2.2685,-2.2706,-2.2716,-2.2728,-2.2747,-2.275,-2.2769,-2.2789,-2.2785,-2.281,-2.2821,-2.2844,-2.2852,-2.2872,-2.286,-2.2871,-2.2873,-2.2875,-2.2878,-2.2803,-2.2875,-2.2875,-2.2875,-2.2875,-2.2875,0,-2.2725,-2.2731,-2.2751,-2.2769,-2.2786,-2.2775,-2.2788,-2.2803,-2.2826,-2.2837,-2.2854,-2.288,-2.2901,-2.2905,-2.2925,-2.294,-2.2935,-2.2945,-2.2943,-2.2944,-2.2888,-2.2879,-2.2949,-2.2949,-2.2949,-2.2949,-2.2949,-2.2949,-2.2763,-2.2796,-2.2796,-2.2833,-2.2839,-2.2864,-2.2873,-2.2884,-2.2893,-2.2923,-2.294,-2.2943,-2.2952,-2.2972,-2.299,-2.2991,-2.2998,-2.3011,-2.3009,-2.2956,-2.2948,-2.2941,-2.2933,-2.3013,-2.3013,-2.3063,-2.3064,-2.3064]},{"header":{"parameterUnit":"m.s-1","parameterCategory":1,"la1":30.2991,"la2":30.254,"lo1":-89.0895,"lo2":-89.0444,"dy":0.0017,"dx":0.0017,"nx":28,"ny":28,"refTime":"2025-12-12T03:00:00:Z","depth":0,"parameterNumber":3,"parameterNumberName":"V-component_of_WINDS"},"data":[0,0,0,0,0,0,0,0,0,0,0,0,0,0,0,0,0,0,0,0,0,0,0,0,0,0,0,0,0,0,0,0,0,0,0,0,0,0,0,0,0,0,0,0,0,0,0,0,0,0,0,0,0,0,0,0,0,0,1.6363,1.6363,0,1.6388,1.6389,1.6389,1.6383,1.6383,1.6382,1.6382,1.6406,1.6407,1.6408,0,0,0,0,0,0,0,0,0,0,0,0,0,1.6308,1.6309,1.6363,1.6363,1.6363,1.6388,1.6389,1.6389,1.6383,1.6382,1.6382,1.6381,1.6406,1.6407,1.6408,0,0,0,0,0,0,0,0,0,0,0,0,0,1.6333,1.631,1.6363,1.6364,1.6364,1.6388,1.6389,1.6389,1.6383,1.6382,1.6382,1.6381,1.6405,1.6407,1.6408,1.6433,0,0,1.6413,1.6414,0,0,0,0,0,0,0,0,1.6331,1.6335,1.6363,1.6364,1.6364,1.6382,1.6378,1.6404,1.6383,1.6376,1.6382,1.6381,1.6398,1.6401,1.6407,1.6434,1.6435,1.6414,1.6415,1.6415,1.6416,0,0,0,0,0,0,0,1.633,1.6334,1.6373,1.6364,1.6364,1.6362,1.6365,1.6383,1.6391,1.6376,1.6376,1.6379,1.6398,1.6405,1.6407,1.6435,1.6414,1.6415,1.6416,1.6417,1.6486,1.6486,0,0,0,0,0,0,1.6328,1.6332,1.6372,1.6374,1.6346,1.6364,1.6367,1.6377,1.6391,1.6392,1.638,1.6379,1.6403,1.6405,1.6408,1.6439,1.6415,1.6417,1.6418,1.6485,1.6486,1.6487,0,0,0,0,0,0,1.6327,1.6331,1.6371,1.6353,1.6358,1.6366,1.6377,1.6378,1.6384,1.6393,1.6394,1.6385,1.6402,1.6406,1.6427,1.644,1.6418,1.6419,1.6484,1.6485,1.6486,1.65,0,0,0,0,0,0,1.6325,1.6331,1.634,1.6353,1.6359,1.639,1.6377,1.6379,1.6388,1.6387,1.6399,1.64,1.6402,1.6425,1.6429,1.6442,1.642,1.6483,1.6484,1.6486,1.6499,1.6502,1.6505,0,0,0,0,0,1.6323,1.6343,1.6341,1.6346,1.6371,1.6391,1.6394,1.6396,1.6388,1.6398,1.6404,1.64,1.6438,1.6427,1.6432,1.6445,1.6482,1.6484,1.6486,1.6497,1.6501,1.6504,0,0,0,0,0,0,1.633,1.6344,1.6343,1.6367,1.6378,1.639,1.6402,1.64,1.6413,1.6411,1.6413,1.6416,1.6438,1.6443,1.6431,1.647,1.6459,1.6462,1.6466,1.647,1.6473,1.6471,1.6422,0,0,0,0,0,1.6335,1.635,1.6361,1.6382,1.6387,1.6394,1.6402,1.6403,1.6414,1.6419,1.6426,1.6437,1.6451,1.6461,1.6474,1.6499,1.6502,1.6511,1.6514,1.6516,1.6519,1.6534,1.6538,1.6493,1.6493,1.6493,0,0,1.6344,1.6354,1.6363,1.6383,1.6392,1.6408,1.6397,1.6414,1.6426,1.6421,1.6442,1.6448,1.646,1.6484,1.6495,1.6489,1.6532,1.6518,1.652,1.6522,1.6536,1.6541,1.6544,1.6494,1.6494,1.6494,0,0,1.6369,1.6378,1.6396,1.6406,1.6419,1.6423,1.6428,1.644,1.6444,1.6466,1.6463,1.6477,1.6501,1.6511,1.6518,1.6549,1.6546,1.6553,1.6568,1.6583,1.6587,1.659,1.6602,1.6606,1.6555,1.6555,1.6555,0,1.6379,1.6403,1.6406,1.6424,1.6433,1.643,1.6449,1.6458,1.6475,1.6481,1.6475,1.6507,1.6515,1.6541,1.6549,1.6555,1.6561,1.6552,1.6586,1.6589,1.6592,1.6604,1.6608,1.6556,1.6556,1.6556,1.6556,0,1.6415,1.6432,1.6445,1.6463,1.6474,1.6492,1.6498,1.6508,1.6509,1.6514,1.6536,1.6545,1.6562,1.6568,1.6568,1.6595,1.6591,1.6585,1.6574,1.6597,1.6608,1.6612,1.6558,1.6557,1.6557,1.6557,0,0,1.6445,1.6465,1.647,1.6479,1.6494,1.6507,1.6526,1.6542,1.6552,1.6564,1.658,1.6601,1.6596,1.6605,1.6606,1.6619,1.6644,1.6612,1.6612,1.6618,1.6676,1.6681,1.6686,1.6642,1.6643,1.6643,1.6676,0,1.6473,1.6506,1.651,1.6539,1.6556,1.6554,1.657,1.6581,1.6586,1.6601,1.6606,1.6622,1.6614,1.6619,1.6632,1.6638,1.6656,1.6636,1.6657,1.6658,1.6655,1.6692,1.6697,1.6727,1.668,1.668,1.6681,0,1.6509,1.6524,1.6556,1.657,1.6577,1.6592,1.6608,1.6622,1.6634,1.6637,1.6648,1.6648,1.6667,1.6655,1.6682,1.6668,1.6677,1.6681,1.6683,1.6685,1.6672,1.6697,1.6736,1.6741,1.6687,1.6687,1.6686,0,1.653,1.6557,1.658,1.6587,1.6604,1.6615,1.6622,1.6635,1.6645,1.6659,1.6666,1.6682,1.669,1.6703,1.6707,1.6697,1.6734,1.6721,1.6738,1.6738,1.6746,1.6746,1.6789,1.675,1.675,1.675,1.675,0,1.6561,1.6581,1.659,1.6604,1.6626,1.663,1.6652,1.6659,1.667,1.6686,1.6684,1.6699,1.6703,1.6718,1.6721,1.6744,1.6747,1.6751,1.6752,1.6752,1.6751,1.6758,1.6756,1.6751,1.6751,1.6751,1.675,0,1.6588,1.6595,1.662,1.6634,1.6639,1.6655,1.6667,1.6681,1.6686,1.6706,1.6711,1.6719,1.6737,1.6743,1.6764,1.6766,1.6793,1.6791,1.6789,1.679,1.6806,1.6805,1.6856,1.6863,1.6818,1.6819,1.6819,0,1.6608,1.6623,1.664,1.6651,1.6659,1.6676,1.6687,1.6692,1.6703,1.672,1.6732,1.675,1.6765,1.6794,1.6802,1.6818,1.6818,1.6835,1.682,1.682,1.682,1.6819,1.6821,1.6837,1.6838,1.6838,1.6839,0,1.6643,1.6646,1.6662,1.668,1.6694,1.6707,1.6721,1.673,1.6736,1.6749,1.6768,1.678,1.6802,1.6821,1.6838,1.6845,1.6843,1.6843,1.6848,1.6849,1.6847,1.685,1.6798,1.6842,1.6842,1.6841,1.6841,1.6841,1.6668,1.6682,1.6697,1.6715,1.6726,1.6739,1.6753,1.6761,1.6777,1.6797,1.6798,1.6819,1.6832,1.6855,1.6864,1.688,1.6875,1.6882,1.6884,1.6886,1.6888,1.6844,1.6883,1.6883,1.6883,1.6883,1.6883,0,1.6704,1.6714,1.6731,1.675,1.6765,1.6762,1.6777,1.679,1.6809,1.6822,1.6837,1.6859,1.6877,1.6887,1.6905,1.6917,1.6916,1.6921,1.6921,1.6923,1.6891,1.6885,1.6921,1.6921,1.6921,1.6921,1.6921,1.6921,1.6725,1.675,1.6754,1.6784,1.6794,1.6815,1.6824,1.6836,1.6846,1.6872,1.6887,1.6894,1.6906,1.6925,1.6942,1.6944,1.6951,1.6957,1.6959,1.6929,1.6925,1.6921,1.6916,1.6958,1.6958,1.699,1.6991,1.6991]}]]